Tracking 35237 objects as of 5-Sep-2026
HD Live streaming from Space Station
objects crossing your sky now

HIMAWARI 3 AKM

Track HIMAWARI 3 AKM now!


NORAD ID: 22266
Int'l Code: 1984-080E
Launch date: August 2, 1984
Source: Japan (JPN)
Launch site: TANEGASHIMA SPACE CENTER (TNSTA)

Note: This is a ROCKET BODY
Your satellite tracking list
Your tracking list is empty




NASA's NSSDC Master Catalog

Two Line Element Set (TLE):
1 22266U 84080E   26247.81871353  .00000086  00000-0  00000-0 0  9999
2 22266   9.3741 315.6666 0136640 115.3743 254.3051  0.99746328118289
Source of the keplerian elements: AFSPC